[[{"header":{"parameterUnit":"m.s-1","parameterCategory":1,"la1":30.2992,"la2":30.254,"lo1":-89.0895,"lo2":-89.0443,"dy":0.0025,"dx":0.0025,"nx":19,"ny":19,"refTime":"2026-04-08T09:00:00:Z","depth":0,"parameterNumber":2,"parameterNumberName":"U-component_of_WINDS"},"data":[0,0,0,-6.5459,-6.5461,-6.5509,-6.5509,-6.5628,-6.5629,0,0,0,0,0,0,0,0,0,0,0,-6.5479,-6.5481,-6.5459,-6.5461,-6.5509,-6.5509,-6.5627,-6.5629,0,0,0,0,0,0,0,0,0,0,0,-6.5478,-6.5481,-6.5483,-6.5461,-6.5509,-6.5509,-6.5627,-6.557,0,0,0,0,0,0,0,0,0,0,-6.5514,-6.5566,-6.548,-6.5483,-6.5462,-6.5509,-6.5509,-6.5567,-6.5574,-6.563,0,-6.569,0,-6.5662,-6.5641,-6.5641,0,0,0,-6.5435,-6.5561,-6.5542,-6.5483,-6.5462,-6.5509,-6.548,-6.557,-6.5578,-6.564,-6.5691,-6.5694,-6.5664,-6.5642,-6.5643,-6.6055,-6.6058,0,0,-6.5432,-6.5507,-6.5537,-6.5549,-6.5545,-6.5479,-6.5482,-6.5574,-6.5634,-6.5691,-6.5695,-6.5666,-6.5643,-6.5644,-6.6052,-6.6055,0,0,0,-6.5442,-6.5506,-6.5484,-6.5546,-6.555,-6.5481,-6.5484,-6.563,-6.5616,-6.5696,-6.5667,-6.5644,-6.5646,-6.6048,-6.6053,-6.628,0,0,0,-6.5439,-6.5511,-6.5484,-6.553,-6.555,-6.5591,-6.5539,-6.561,-6.5618,-6.5667,-6.5644,-6.5648,-6.6044,-6.6051,-6.6266,-6.6375,0,0,0,-6.5464,-6.5514,-6.5533,-6.5534,-6.5557,-6.5587,-6.5578,-6.561,-6.5602,-6.5642,-6.5648,-6.6042,-6.605,-6.6254,-6.6354,-6.6504,0,0,0,-6.5512,-6.5734,-6.5538,-6.5774,-6.5558,-6.5728,-6.5577,-6.57,-6.5761,-6.5645,-6.6045,-6.6052,-6.625,-6.6341,-6.6492,-6.6644,-6.6715,0,0,-6.5833,-6.5775,-6.5908,-6.5734,-6.5958,-6.5714,-6.5971,-6.5957,-6.5893,-6.6005,-6.6013,-6.627,-6.6353,-6.6502,-6.7085,-6.7142,0,0,0,-6.6035,-6.6132,-6.6175,-6.6237,-6.6231,-6.6235,-6.6174,-6.6168,-6.6259,-6.5966,-6.6363,-6.641,-6.6494,-6.6564,-6.6612,-6.6679,-6.6088,-6.6087,-6.6086,-6.6597,-6.6502,-6.6716,-6.6628,-6.669,-6.6624,-6.6666,-6.6647,-6.6534,-6.663,-6.6662,-6.7028,-6.7112,-6.7147,-6.7219,-6.6735,-6.6736,-6.6737,-6.6738,-6.7058,-6.7179,-6.7024,-6.7176,-6.7075,-6.7202,-6.7147,-6.7063,-6.7166,-6.6995,-6.7065,-6.6886,-6.7213,-6.727,-6.6754,-6.6751,-6.6749,-6.6747,-6.6746,-6.7414,-6.7456,-6.7446,-6.7525,-6.7597,-6.75,-6.7606,-6.751,-6.7421,-6.7491,-6.7514,-6.751,-6.7494,-6.7509,-6.751,-6.7511,-6.7512,-6.7513,-6.7514,-6.7788,-6.7769,-6.787,-6.7883,-6.791,-6.7933,-6.787,-6.7894,-6.7896,-6.7818,-6.7818,-6.7696,-6.7262,-6.7155,-6.7533,-6.753,-6.7527,-6.7526,-6.7524,-6.829,-6.8161,-6.8318,-6.8345,-6.8352,-6.843,-6.8306,-6.8364,-6.837,-6.8425,-6.8289,-6.7983,-6.7917,-6.7878,-6.7789,-6.8308,-6.8308,-6.8308,-6.8308,-6.8591,-6.8548,-6.8685,-6.8735,-6.8773,-6.8678,-6.8858,-6.8811,-6.8743,-6.8741,-6.8652,-6.8525,-6.849,-6.8444,-6.8393,-6.8308,-6.8949,-6.8949,-6.895,-6.8894,-6.885,-6.9021,-6.8952,-6.8951,-6.8952,-6.9118,-6.9182,-6.9078,-6.8974,-6.8738,-6.8711,-6.8505,-6.8443,-6.8333,-6.8256,-6.8097,0,0]},{"header":{"parameterUnit":"m.s-1","parameterCategory":1,"la1":30.2992,"la2":30.254,"lo1":-89.0895,"lo2":-89.0443,"dy":0.0025,"dx":0.0025,"nx":19,"ny":19,"refTime":"2026-04-08T09:00:00:Z","depth":0,"parameterNumber":3,"parameterNumberName":"V-component_of_WINDS"},"data":[0,0,0,-0.6384,-0.6386,-0.6466,-0.6466,-0.6562,-0.6563,0,0,0,0,0,0,0,0,0,0,0,-0.6355,-0.6356,-0.6384,-0.6386,-0.6466,-0.6466,-0.6562,-0.6563,0,0,0,0,0,0,0,0,0,0,0,-0.6355,-0.6356,-0.6356,-0.6386,-0.6466,-0.6466,-0.6562,-0.6505,0,0,0,0,0,0,0,0,0,0,-0.6429,-0.6395,-0.6355,-0.6356,-0.6387,-0.6466,-0.6466,-0.6502,-0.6508,-0.6523,0,-0.6533,0,-0.6549,-0.6569,-0.6569,0,0,0,-0.6391,-0.639,-0.6416,-0.6356,-0.6387,-0.6465,-0.6431,-0.6506,-0.6513,-0.6531,-0.6534,-0.6538,-0.6551,-0.657,-0.657,-0.6631,-0.6631,0,0,-0.6387,-0.6367,-0.6411,-0.642,-0.6405,-0.6429,-0.6434,-0.651,-0.6513,-0.6535,-0.654,-0.6552,-0.657,-0.6571,-0.6631,-0.6631,0,0,0,-0.6371,-0.6364,-0.6389,-0.6416,-0.6431,-0.6431,-0.6437,-0.651,-0.6519,-0.6541,-0.6553,-0.6571,-0.6572,-0.6631,-0.6631,-0.6612,0,0,0,-0.6368,-0.6355,-0.6386,-0.6375,-0.6429,-0.6471,-0.6434,-0.6514,-0.6523,-0.6553,-0.6571,-0.6573,-0.6631,-0.6631,-0.6612,-0.6607,0,0,0,-0.6352,-0.6353,-0.6362,-0.6374,-0.6407,-0.647,-0.6484,-0.6516,-0.653,-0.6569,-0.6573,-0.6631,-0.6631,-0.6613,-0.6608,-0.6616,0,0,0,-0.633,-0.6347,-0.6361,-0.6385,-0.6406,-0.6456,-0.6484,-0.6523,-0.6555,-0.6571,-0.6631,-0.6631,-0.6613,-0.6608,-0.6616,-0.6619,-0.6619,0,0,-0.6341,-0.6348,-0.6363,-0.6378,-0.642,-0.6446,-0.6486,-0.6536,-0.656,-0.6606,-0.6608,-0.6612,-0.6608,-0.6616,-0.6621,-0.662,0,0,0,-0.636,-0.637,-0.6386,-0.6413,-0.6448,-0.6479,-0.6523,-0.6541,-0.6581,-0.6579,-0.6618,-0.6616,-0.6622,-0.6625,-0.6624,-0.663,-0.6631,-0.6631,-0.6631,-0.6349,-0.6374,-0.6401,-0.6435,-0.6461,-0.6504,-0.6529,-0.6561,-0.6582,-0.6591,-0.6605,-0.6604,-0.6606,-0.6606,-0.6612,-0.6609,-0.6609,-0.6609,-0.6609,-0.6367,-0.6385,-0.6409,-0.6443,-0.647,-0.65,-0.6542,-0.6556,-0.6589,-0.6597,-0.6603,-0.661,-0.6604,-0.6611,-0.6607,-0.6608,-0.6608,-0.6608,-0.6608,-0.6362,-0.6375,-0.6394,-0.6433,-0.6462,-0.6497,-0.6525,-0.6551,-0.6575,-0.6581,-0.6598,-0.6598,-0.6602,-0.6587,-0.6587,-0.6587,-0.6587,-0.6587,-0.6587,-0.6351,-0.6372,-0.6392,-0.6428,-0.6447,-0.6475,-0.6517,-0.6538,-0.6567,-0.6583,-0.6584,-0.6603,-0.6598,-0.6596,-0.6587,-0.6587,-0.6587,-0.6587,-0.6587,-0.636,-0.6361,-0.6391,-0.641,-0.6453,-0.6478,-0.6508,-0.6547,-0.6568,-0.6581,-0.6599,-0.659,-0.6601,-0.6602,-0.66,-0.6593,-0.6593,-0.6593,-0.6593,-0.6356,-0.6362,-0.6397,-0.6425,-0.6455,-0.6484,-0.6518,-0.6551,-0.6585,-0.6599,-0.6604,-0.6604,-0.6604,-0.6614,-0.6615,-0.6614,-0.661,-0.661,-0.661,-0.6363,-0.6372,-0.6396,-0.6426,-0.6461,-0.649,-0.6523,-0.6556,-0.6595,-0.6611,-0.6611,-0.661,-0.6611,-0.661,-0.6627,-0.6627,-0.6627,0,0]}]]